Location: Caltech
(34.1382°N, 118.1253°W)
Time: 03:42:59
(UTC-07:00)

AO-7 - Visible Passes

Search period start: 20 August 2014 00:00
Search period end: 30 August 2014 00:00
Orbit: 1440 x 1459 km, 101.5° (Epoch: 18 August)

Date Brightness Start Highest point End Pass type
(mag) Time Alt. Az. Time Alt. Az. Time Alt. Az.
20 Aug ? 04:19:52 10° NE 04:27:01 31° E 04:34:05 10° SSE visible
21 Aug ? 05:11:56 10° NNE 05:20:14 71° ESE 05:28:28 10° S visible
22 Aug ? 04:13:11 10° NE 04:20:01 28° E 04:26:48 10° SSE visible
23 Aug ? 05:05:04 10° NNE 05:13:18 65° ESE 05:21:28 10° S visible
24 Aug ? 04:06:32 10° NE 04:13:02 25° E 04:19:28 10° SSE visible
25 Aug ? 04:58:12 10° NNE 05:06:22 58° ESE 05:14:27 10° S visible
26 Aug ? 03:59:57 10° NE 04:06:02 22° E 04:12:04 10° SE visible
26 Aug ? 05:51:05 10° N 05:59:17 67° WNW 06:07:26 10° SSW visible
27 Aug ? 04:51:22 10° NNE 04:59:25 53° ESE 05:07:24 10° S visible
28 Aug ? 03:53:25 10° NE 03:59:02 20° E 04:04:35 10° SE visible
28 Aug ? 05:44:08 10° NNE 05:52:23 74° WNW 06:00:36 10° SSW visible
29 Aug ? 04:44:33 10° NNE 04:52:28 47° ESE 05:00:19 10° S visible
